| time (UTC) | temp C | wind direction | speed KPH | gust KPH | rain 1hr cm | rain 24hr cm | rain mn cm | humidity % | barometer mb |
| 20260504050555 | 20 | 0 | 4.8 | 11.3 | 0.00 | 0.00 | 0.00 | 28 | 1017.2 |
| 20260504045557 | 20 | 217 | 0.0 | 12.9 | 0.00 | 0.00 | 0.00 | 28 | 1016.8 |
| 20260504045056 | 20 | 236 | 1.6 | 12.9 | 0.00 | 0.00 | 0.00 | 26 | 1016.8 |
| 20260504044611 | 20 | 234 | 3.2 | 11.3 | 0.00 | 0.00 | 0.00 | 27 | 1017.0 |
| 20260504044056 | 20 | 245 | 3.2 | 11.3 | 0.00 | 0.00 | 0.00 | 27 | 1017.0 |
| 20260504043555 | 20 | 246 | 1.6 | 11.3 | 0.00 | 0.00 | 0.00 | 26 | 1016.9 |
| 20260504043055 | 20 | 241 | 0.0 | 11.3 | 0.00 | 0.00 | 0.00 | 27 | 1016.9 |
| 20260504042552 | 20 | 232 | 0.0 | 9.7 | 0.00 | 0.00 | 0.00 | 26 | 1016.6 |
| 20260504042052 | 20 | 323 | 0.0 | 11.3 | 0.00 | 0.00 | 0.00 | 26 | 1016.6 |
| 20260504041557 | 20 | 0 | 1.6 | 11.3 | 0.00 | 0.00 | 0.00 | 27 | 1016.5 |
| 20260504041052 | 20 | 243 | 1.6 | 8.0 | 0.00 | 0.00 | 0.00 | 27 | 1016.4 |
| 20260504040552 | 20 | 0 | 0.0 | 8.0 | 0.00 | 0.00 | 0.00 | 28 | 1016.6 |
| 20260504040113 | 21 | 244 | 0.0 | 8.0 | 0.00 | 0.00 | 0.00 | 27 | 1016.6 |
| 20260504035557 | 21 | 242 | 0.0 | 9.7 | 0.00 | 0.00 | 0.00 | 28 | 1016.6 |
| 20260504035053 | 21 | 0 | 1.6 | 9.7 | 0.00 | 0.00 | 0.00 | 28 | 1016.7 |
| 20260504034617 | 20 | 0 | 0.0 | 4.8 | 0.00 | 0.00 | 0.00 | 29 | 1016.5 |
| 20260504034053 | 21 | 0 | 0.0 | 8.0 | 0.00 | 0.00 | 0.00 | 29 | 1016.5 |
| 20260504033558 | 21 | 0 | 0.0 | 8.0 | 0.00 | 0.00 | 0.00 | 29 | 1016.3 |
| 20260504033101 | 21 | 243 | 0.0 | 8.0 | 0.00 | 0.00 | 0.00 | 28 | 1016.0 |
| 20260504032555 | 21 | 0 | 1.6 | 11.3 | 0.00 | 0.00 | 0.00 | 28 | 1016.0 |
| 20260504032055 | 21 | 0 | 3.2 | 11.3 | 0.00 | 0.00 | 0.00 | 27 | 1016.2 |
| 20260504031553 | 21 | 0 | 1.6 | 11.3 | 0.00 | 0.00 | 0.00 | 27 | 1016.2 |
| 20260504031054 | 21 | 254 | 1.6 | 11.3 | 0.00 | 0.00 | 0.00 | 27 | 1016.1 |
| 20260504030558 | 21 | 277 | 1.6 | 9.7 | 0.00 | 0.00 | 0.00 | 27 | 1016.1 |
| 20260504030056 | 21 | 0 | 0.0 | 8.0 | 0.00 | 0.00 | 0.00 | 29 | 1016.0 |
| 20260504025556 | 21 | 0 | 0.0 | 8.0 | 0.00 | 0.00 | 0.00 | 29 | 1015.9 |
| 20260504025056 | 21 | 0 | 0.0 | 6.4 | 0.00 | 0.00 | 0.00 | 28 | 1015.9 |
| 20260504024558 | 21 | 0 | 0.0 | 6.4 | 0.00 | 0.00 | 0.00 | 28 | 1015.9 |
| 20260504024055 | 22 | 0 | 0.0 | 0.0 | 0.00 | 0.00 | 0.00 | 29 | 1015.8 |
| 20260504023552 | 22 | 0 | 0.0 | 0.0 | 0.00 | 0.00 | 0.00 | 27 | 1015.9 |
| 20260504023054 | 22 | 0 | 0.0 | 0.0 | 0.00 | 0.00 | 0.00 | 28 | 1015.8 |
| 20260504022553 | 22 | 0 | 0.0 | 0.0 | 0.00 | 0.00 | 0.00 | 28 | 1015.7 |
| 20260504022058 | 22 | 0 | 0.0 | 0.0 | 0.00 | 0.00 | 0.00 | 29 | 1015.5 |
| 20260504021553 | 22 | 0 | 0.0 | 0.0 | 0.00 | 0.00 | 0.00 | 29 | 1015.5 |
| 20260504021055 | 22 | 0 | 0.0 | 0.0 | 0.00 | 0.00 | 0.00 | 29 | 1015.6 |
| 20260504020553 | 22 | 0 | 0.0 | 0.0 | 0.00 | 0.00 | 0.00 | 28 | 1015.6 |
| 20260504020053 | 22 | 0 | 0.0 | 1.6 | 0.00 | 0.00 | 0.00 | 28 | 1015.5 |
| 20260504015552 | 23 | 0 | 0.0 | 1.6 | 0.00 | 0.00 | 0.00 | 27 | 1015.4 |
| 20260504015055 | 23 | 0 | 0.0 | 1.6 | 0.00 | 0.00 | 0.00 | 27 | 1015.2 |
| 20260504014554 | 23 | 0 | 0.0 | 0.0 | 0.00 | 0.00 | 0.00 | 27 | 1015.3 |
| 20260504014055 | 24 | 0 | 0.0 | 1.6 | 0.00 | 0.00 | 0.00 | 26 | 1015.4 |
| 20260504013554 | 24 | 0 | 0.0 | 1.6 | 0.00 | 0.00 | 0.00 | 26 | 1015.4 |
| 20260504013111 | 25 | 0 | 0.0 | 11.3 | 0.00 | 0.00 | 0.00 | 25 | 1015.5 |
| 20260504012555 | 25 | 0 | 0.0 | 24.1 | 0.00 | 0.00 | 0.00 | 25 | 1015.2 |
| 20260504012055 | 25 | 0 | 9.7 | 24.1 | 0.00 | 0.00 | 0.00 | 25 | 1015.4 |
| 20260504011555 | 25 | 0 | 0.0 | 16.1 | 0.00 | 0.00 | 0.00 | 24 | 1015.4 |
| 20260504011054 | 25 | 188 | 3.2 | 16.1 | 0.00 | 0.00 | 0.00 | 24 | 1015.4 |
| 20260504010555 | 25 | 0 | 3.2 | 16.1 | 0.00 | 0.00 | 0.00 | 24 | 1015.4 |
| 20260504010101 | 25 | 0 | 0.0 | 12.9 | 0.00 | 0.00 | 0.00 | 24 | 1015.4 |
| 20260504005554 | 25 | 0 | 0.0 | 12.9 | 0.00 | 0.00 | 0.00 | 25 | 1015.4 |
| 20260504005053 | 25 | 0 | 0.0 | 4.8 | 0.00 | 0.00 | 0.00 | 25 | 1015.5 |
| 20260504004607 | 25 | 0 | 0.0 | 4.8 | 0.00 | 0.00 | 0.00 | 25 | 1015.5 |
| 20260504004053 | 25 | 0 | 0.0 | 0.0 | 0.00 | 0.00 | 0.00 | 24 | 1015.5 |
| 20260504003552 | 25 | 0 | 0.0 | 17.7 | 0.00 | 0.00 | 0.00 | 24 | 1015.4 |
| 20260504003058 | 25 | 0 | 1.6 | 20.9 | 0.00 | 0.00 | 0.00 | 24 | 1015.4 |
| 20260504002553 | 25 | 204 | 11.3 | 22.5 | 0.00 | 0.00 | 0.00 | 24 | 1015.4 |
| 20260504002055 | 25 | 0 | 12.9 | 22.5 | 0.00 | 0.00 | 0.00 | 24 | 1015.5 |
| 20260504001558 | 25 | 164 | 12.9 | 22.5 | 0.00 | 0.00 | 0.00 | 24 | 1015.5 |
| 20260504001055 | 26 | 184 | 6.4 | 22.5 | 0.00 | 0.00 | 0.00 | 24 | 1015.3 |
| 20260504000555 | 26 | 171 | 9.7 | 20.9 | 0.00 | 0.00 | 0.00 | 24 | 1015.3 |
| 20260504000125 | 26 | 0 | 0.0 | 8.0 | 0.00 | 0.00 | 0.00 | 25 | 1015.3 |
| 20260503235554 | 26 | 0 | 0.0 | 9.7 | 0.00 | 0.00 | 0.00 | 25 | 1015.4 |
| 20260503235056 | 26 | 0 | 0.0 | 9.7 | 0.00 | 0.00 | 0.00 | 24 | 1015.5 |
| 20260503234557 | 26 | 238 | 1.6 | 9.7 | 0.00 | 0.00 | 0.00 | 24 | 1015.5 |
| 20260503234054 | 26 | 238 | 0.0 | 8.0 | 0.00 | 0.00 | 0.00 | 24 | 1015.5 |
| 20260503233555 | 26 | 0 | 0.0 | 9.7 | 0.00 | 0.00 | 0.00 | 24 | 1015.5 |
| 20260503233057 | 26 | 229 | 0.0 | 24.1 | 0.00 | 0.00 | 0.00 | 23 | 1015.4 |
| 20260503232553 | 26 | 224 | 0.0 | 24.1 | 0.00 | 0.00 | 0.00 | 23 | 1015.5 |
| 20260503232052 | 26 | 0 | 11.3 | 24.1 | 0.00 | 0.00 | 0.00 | 24 | 1015.6 |
| 20260503231556 | 26 | 0 | 0.0 | 20.9 | 0.00 | 0.00 | 0.00 | 23 | 1015.6 |
| 20260503231055 | 26 | 174 | 12.9 | 25.7 | 0.00 | 0.00 | 0.00 | 23 | 1015.7 |
| 20260503230555 | 26 | 159 | 14.5 | 25.7 | 0.00 | 0.00 | 0.00 | 22 | 1015.6 |
| 20260503230104 | 26 | 191 | 14.5 | 25.7 | 0.00 | 0.00 | 0.00 | 22 | 1015.6 |
| 20260503225554 | 26 | 172 | 6.4 | 24.1 | 0.00 | 0.00 | 0.00 | 26 | 1015.8 |
| 20260503225055 | 26 | 158 | 14.5 | 24.1 | 0.00 | 0.00 | 0.00 | 27 | 1015.7 |
| 20260503224602 | 26 | 166 | 16.1 | 24.1 | 0.00 | 0.00 | 0.00 | 28 | 1015.7 |
| 20260503224055 | 26 | 176 | 8.0 | 29.0 | 0.00 | 0.00 | 0.00 | 27 | 1015.7 |
| 20260503223554 | 26 | 165 | 1.6 | 29.0 | 0.00 | 0.00 | 0.00 | 26 | 1015.8 |
| 20260503223058 | 26 | 174 | 9.7 | 29.0 | 0.00 | 0.00 | 0.00 | 26 | 1015.9 |
| 20260503222554 | 26 | 195 | 16.1 | 22.5 | 0.00 | 0.00 | 0.00 | 27 | 1015.9 |
| 20260503222054 | 26 | 152 | 11.3 | 22.5 | 0.00 | 0.00 | 0.00 | 27 | 1015.9 |
| 20260503221556 | 26 | 186 | 6.4 | 43.5 | 0.00 | 0.00 | 0.00 | 27 | 1015.9 |
| 20260503221055 | 26 | 143 | 11.3 | 43.5 | 0.00 | 0.00 | 0.00 | 27 | 1015.9 |
| 20260503220555 | 26 | 139 | 4.8 | 33.8 | 0.00 | 0.00 | 0.00 | 28 | 1016.1 |
| 20260503220120 | 26 | 145 | 3.2 | 33.8 | 0.00 | 0.00 | 0.00 | 29 | 1016.3 |
| 20260503215554 | 26 | 180 | 8.0 | 25.7 | 0.00 | 0.00 | 0.00 | 30 | 1016.3 |
| 20260503215056 | 26 | 172 | 9.7 | 27.4 | 0.00 | 0.00 | 0.00 | 30 | 1016.4 |
| 20260503214559 | 26 | 158 | 12.9 | 27.4 | 0.00 | 0.00 | 0.00 | 29 | 1016.4 |
| 20260503214054 | 26 | 153 | 14.5 | 27.4 | 0.00 | 0.00 | 0.00 | 30 | 1016.6 |
| 20260503213555 | 26 | 169 | 9.7 | 20.9 | 0.00 | 0.00 | 0.00 | 30 | 1016.7 |
| 20260503213059 | 26 | 182 | 11.3 | 20.9 | 0.00 | 0.00 | 0.00 | 29 | 1016.7 |
| 20260503212555 | 26 | 0 | 1.6 | 25.7 | 0.00 | 0.00 | 0.00 | 31 | 1016.8 |
| 20260503212055 | 26 | 167 | 4.8 | 25.7 | 0.00 | 0.00 | 0.00 | 31 | 1017.0 |
| 20260503211556 | 25 | 174 | 16.1 | 27.4 | 0.00 | 0.00 | 0.00 | 30 | 1017.1 |
| 20260503211055 | 26 | 131 | 17.7 | 27.4 | 0.00 | 0.00 | 0.00 | 30 | 1017.2 |
| 20260503210555 | 25 | 147 | 8.0 | 25.7 | 0.00 | 0.00 | 0.00 | 29 | 1017.2 |
| 20260503210059 | 26 | 0 | 6.4 | 27.4 | 0.00 | 0.00 | 0.00 | 29 | 1017.3 |
| 20260503205555 | 26 | 131 | 3.2 | 29.0 | 0.00 | 0.00 | 0.00 | 30 | 1017.4 |
| 20260503205053 | 26 | 193 | 20.9 | 29.0 | 0.00 | 0.00 | 0.00 | 29 | 1017.4 |
| 20260503204603 | 26 | 174 | 16.1 | 29.0 | 0.00 | 0.00 | 0.00 | 29 | 1017.3 |
| 20260503204055 | 26 | 150 | 8.0 | 29.0 | 0.00 | 0.00 | 0.00 | 30 | 1017.6 |
| 20260503203552 | 26 | 153 | 9.7 | 27.4 | 0.00 | 0.00 | 0.00 | 30 | 1017.8 |
| 20260503203057 | 26 | 142 | 14.5 | 27.4 | 0.00 | 0.00 | 0.00 | 29 | 1018.0 |
| 20260503202555 | 26 | 142 | 11.3 | 27.4 | 0.00 | 0.00 | 0.00 | 31 | 1018.1 |
| 20260503202055 | 25 | 115 | 6.4 | 30.6 | 0.00 | 0.00 | 0.00 | 30 | 1018.0 |
| 20260503201553 | 25 | 161 | 17.7 | 30.6 | 0.00 | 0.00 | 0.00 | 30 | 1018.2 |
| 20260503201058 | 25 | 136 | 9.7 | 24.1 | 0.00 | 0.00 | 0.00 | 31 | 1018.1 |
| 20260503200555 | 25 | 134 | 14.5 | 24.1 | 0.00 | 0.00 | 0.00 | 32 | 1018.3 |
| 20260503200056 | 25 | 135 | 11.3 | 22.5 | 0.00 | 0.00 | 0.00 | 33 | 1018.3 |
| 20260503195554 | 25 | 139 | 14.5 | 22.5 | 0.00 | 0.00 | 0.00 | 33 | 1018.4 |
| 20260503195055 | 25 | 0 | 4.8 | 17.7 | 0.00 | 0.00 | 0.00 | 35 | 1018.5 |
| 20260503194602 | 25 | 156 | 6.4 | 20.9 | 0.00 | 0.00 | 0.00 | 36 | 1018.5 |
| 20260503194055 | 25 | 100 | 9.7 | 20.9 | 0.00 | 0.00 | 0.00 | 37 | 1018.5 |
| 20260503193554 | 24 | 112 | 9.7 | 19.3 | 0.00 | 0.00 | 0.00 | 36 | 1018.4 |
| 20260503193054 | 24 | 129 | 12.9 | 20.9 | 0.00 | 0.00 | 0.00 | 36 | 1018.5 |
| 20260503192554 | 23 | 129 | 14.5 | 20.9 | 0.00 | 0.00 | 0.00 | 37 | 1018.7 |
| 20260503192055 | 23 | 157 | 12.9 | 20.9 | 0.00 | 0.00 | 0.00 | 37 | 1018.9 |
| 20260503191553 | 23 | 137 | 12.9 | 19.3 | 0.00 | 0.00 | 0.00 | 37 | 1018.8 |
| 20260503191055 | 23 | 146 | 9.7 | 17.7 | 0.00 | 0.00 | 0.00 | 38 | 1019.0 |
| 20260503190556 | 23 | 131 | 11.3 | 19.3 | 0.00 | 0.00 | 0.00 | 38 | 1019.2 |
| 20260503190055 | 23 | 162 | 12.9 | 19.3 | 0.00 | 0.00 | 0.00 | 38 | 1019.4 |
| 20260503185555 | 23 | 116 | 8.0 | 17.7 | 0.00 | 0.00 | 0.00 | 39 | 1019.4 |
| 20260503185057 | 23 | 148 | 11.3 | 19.3 | 0.00 | 0.00 | 0.00 | 39 | 1019.5 |
| 20260503184603 | 22 | 115 | 4.8 | 19.3 | 0.00 | 0.00 | 0.00 | 40 | 1019.6 |
| 20260503184055 | 23 | 138 | 8.0 | 14.5 | 0.00 | 0.00 | 0.00 | 40 | 1019.7 |
| 20260503183553 | 22 | 143 | 4.8 | 16.1 | 0.00 | 0.00 | 0.00 | 41 | 1019.8 |
| 20260503183055 | 22 | 132 | 9.7 | 16.1 | 0.00 | 0.00 | 0.00 | 42 | 1019.7 |
| 20260503182557 | 22 | 0 | 8.0 | 16.1 | 0.00 | 0.00 | 0.00 | 41 | 1019.7 |
| 20260503182055 | 22 | 82 | 3.2 | 17.7 | 0.00 | 0.00 | 0.00 | 42 | 1019.9 |
| 20260503181553 | 22 | 139 | 8.0 | 17.7 | 0.00 | 0.00 | 0.00 | 41 | 1020.1 |
| 20260503181056 | 22 | 95 | 4.8 | 12.9 | 0.00 | 0.00 | 0.00 | 42 | 1020.3 |
| 20260503180555 | 22 | 181 | 8.0 | 17.7 | 0.00 | 0.00 | 0.00 | 41 | 1020.4 |
| 20260503180116 | 22 | 0 | 6.4 | 17.7 | 0.00 | 0.00 | 0.00 | 42 | 1020.3 |
| 20260503175555 | 21 | 122 | 1.6 | 16.1 | 0.00 | 0.00 | 0.00 | 43 | 1020.6 |
| 20260503175054 | 21 | 0 | 1.6 | 12.9 | 0.00 | 0.00 | 0.00 | 43 | 1020.6 |
| 20260503174556 | 21 | 171 | 1.6 | 12.9 | 0.00 | 0.00 | 0.00 | 44 | 1020.7 |
| 20260503174059 | 21 | 0 | 6.4 | 12.9 | 0.00 | 0.00 | 0.00 | 43 | 1020.6 |
| 20260503173555 | 21 | 0 | 4.8 | 9.7 | 0.00 | 0.00 | 0.00 | 44 | 1020.8 |
| 20260503173112 | 21 | 0 | 0.0 | 9.7 | 0.00 | 0.00 | 0.00 | 46 | 1020.7 |
| 20260503172556 | 20 | 57 | 0.0 | 9.7 | 0.00 | 0.00 | 0.00 | 47 | 1020.7 |
| 20260503172055 | 20 | 150 | 0.0 | 6.4 | 0.00 | 0.00 | 0.00 | 48 | 1020.9 |
| 20260503171600 | 20 | 0 | 1.6 | 6.4 | 0.00 | 0.00 | 0.00 | 48 | 1020.8 |
| 20260503171055 | 20 | 0 | 0.0 | 0.0 | 0.00 | 0.00 | 0.00 | 48 | 1020.7 |
| 20260503170555 | 19 | 0 | 0.0 | 0.0 | 0.00 | 0.00 | 0.00 | 48 | 1020.8 |
| 20260503160111 | 17 | 0 | 0.0 | 0.0 | 0.00 | 0.00 | 0.00 | 58 | 1020.4 |
| 20260503150555 | 15 | 0 | 0.0 | 6.4 | 0.00 | 0.00 | 0.00 | 65 | 1020.2 |
| 20260503131055 | 12 | 0 | 0.0 | 0.0 | 0.00 | 0.00 | 0.00 | 80 | 1019.8 |
| 20260503130555 | 12 | 0 | 0.0 | 0.0 | 0.00 | 0.00 | 0.00 | 80 | 1019.8 |
| 20260503110556 | 12 | 0 | 0.0 | 0.0 | 0.00 | 0.00 | 0.00 | 80 | 1019.3 |
| 20260503081556 | 12 | 0 | 0.0 | 0.0 | 0.00 | 0.00 | 0.00 | 81 | 1020.2 |
| 20260503081058 | 12 | 0 | 0.0 | 0.0 | 0.00 | 0.00 | 0.00 | 81 | 1020.2 |
| 20260503080558 | 12 | 0 | 0.0 | 0.0 | 0.00 | 0.00 | 0.00 | 81 | 1020.3 |
| 20260503072555 | 12 | 0 | 0.0 | 0.0 | 0.00 | 0.00 | 0.00 | 79 | 1020.6 |
| 20260503072054 | 12 | 0 | 0.0 | 0.0 | 0.00 | 0.00 | 0.00 | 79 | 1020.5 |
| 20260503071558 | 12 | 0 | 0.0 | 0.0 | 0.00 | 0.00 | 0.00 | 79 | 1020.4 |
| 20260503071054 | 12 | 0 | 0.0 | 0.0 | 0.00 | 0.00 | 0.00 | 79 | 1020.5 |
| 20260503070554 | 13 | 0 | 0.0 | 0.0 | 0.00 | 0.00 | 0.00 | 78 | 1020.4 |